Wind_Speed
31 32 33 34 36 36 36 36 35 36 37 37 37 38 37 36 35 34 35 35 36 38 38 39 39 39 39 39 38 37 37 39 42 46 46 46 47 46 46 46 45 42
29 30 32 34 35 36 35 35 35 36 37 37 37 37 36 35 34 33 33 34 35 36 36 37 38 38 39 39 39 38 37 37 40 43 45 46 47 47 47 47 47 45
28 30 31 33 34 35 35 35 35 36 37 37 37 36 35 34 33 33 33 33 34 35 35 35 36 37 38 38 37 38 38 38 38 39 41 43 44 45 48 48 47 46
28 29 31 32 33 34 34 34 35 36 36 37 37 35 34 34 34 33 33 33 33 34 34 35 36 36 36 36 35 35 36 37 38 37 37 40 41 43 44 43 43 43
28 29 30 31 32 32 33 34 36 36 36 37 36 35 34 34 34 34 33 33 33 33 34 34 35 36 35 34 34 33 34 35 36 36 35 37 38 40 41 40 40 41
28 29 30 30 31 32 33 35 36 36 37 37 36 35 35 34 34 34 34 33 33 34 34 34 35 35 35 34 34 34 33 33 34 34 35 36 37 38 38 39 40 40
28 29 30 30 31 32 34 36 36 37 37 36 36 36 35 34 34 34 34 34 33 34 34 35 35 35 34 34 35 36 35 33 31 32 34 36 36 36 37 38 39 39
27 28 29 30 31 32 34 36 37 37 36 35 36 37 35 34 35 34 34 34 34 35 35 35 35 35 34 34 35 37 37 35 32 31 34 35 35 36 37 36 37 37
27 28 28 30 31 33 36 36 37 37 36 36 37 36 35 35 35 34 34 34 34 35 36 35 35 34 33 34 35 36 37 37 33 31 33 35 35 36 37 36 36 36
29 29 28 30 31 34 36 37 37 36 36 36 37 37 37 36 35 35 35 35 36 36 36 36 35 35 34 34 35 35 35 36 34 33 34 34 34 36 36 36 36 37
28 29 30 31 32 34 35 36 37 37 36 37 37 37 38 37 36 36 36 36 37 37 37 37 36 35 35 34 35 34 34 34 34 34 35 35 34 35 35 36 36 37
28 29 31 32 33 34 35 35 36 37 37 37 37 37 38 38 37 37 37 38 38 37 37 37 36 35 35 35 35 34 33 33 34 35 35 35 34 34 35 36 36 37
27 29 30 32 34 34 35 35 36 37 37 37 37 37 38 38 39 39 38 38 38 38 38 37 37 36 36 36 35 35 34 33 33 35 35 35 35 35 35 36 36 37
29 29 30 31 33 34 35 36 36 37 37 37 36 36 38 38 39 39 38 38 38 38 38 38 37 37 37 37 36 36 35 33 33 34 35 35 35 35 35 35 36 36
30 30 30 31 31 32 34 35 36 37 37 36 35 36 37 37 38 38 38 38 38 39 39 38 38 38 38 38 37 36 35 34 33 34 35 34 33 33 33 34 35 34
31 31 31 31 30 30 31 32 33 35 36 36 36 36 36 36 36 37 37 38 38 39 39 39 39 39 39 38 37 36 35 33 32 32 34 33 32 32 33 33 34 33
32 33 33 32 32 32 31 31 31 31 33 35 36 36 36 35 35 36 37 37 38 39 39 40 40 39 38 37 36 35 34 33 32 31 33 33 32 32 32 32 32 32
35 35 34 34 33 33 33 32 31 31 31 33 34 34 34 34 34 36 37 37 37 38 39 40 40 39 37 36 35 34 33 34 32 31 32 32 32 31 31 31 30 30
37 36 36 35 34 34 34 33 32 32 32 32 32 32 32 32 33 35 36 36 36 38 39 39 39 37 36 35 34 33 32 33 32 32 32 32 31 30 29 29 28 28
37 36 36 36 35 34 34 33 32 32 33 32 32 31 31 32 33 34 34 35 36 37 37 38 38 36 35 34 33 31 31 31 32 32 32 31 30 29 28 27 27 26
36 37 37 37 36 35 33 32 32 32 32 32 31 31 32 32 32 33 34 34 34 35 36 37 36 35 33 32 31 30 30 30 31 31 30 29 28 27 26 25 25 25
35 36 37 37 36 34 33 33 32 32 31 30 30 31 31 31 32 32 33 33 33 33 34 36 35 33 31 30 29 29 29 29 29 28 27 27 26 25 25 24 23 23
36 35 36 36 35 34 34 33 32 31 30 29 29 31 31 31 32 32 32 33 32 32 33 34 34 31 29 28 28 28 28 28 27 26 25 25 24 23 22 21 21 22
35 34 34 34 34 33 33 34 33 32 30 28 27 29 30 31 31 31 32 31 32 32 32 32 32 29 27 27 27 27 26 25 24 23 23 22 21 21 20 20 21 21
36 34 33 32 33 33 32 32 33 32 30 29 28 28 29 30 29 29 30 30 30 30 29 29 28 26 25 25 25 25 24 23 22 22 22 21 20 20 19 18 19 18
35 34 33 32 32 32 32 31 31 31 30 29 28 28 28 28 28 27 28 28 27 27 26 26 25 24 24 24 24 23 22 21 21 22 22 21 20 19 18 17 17 18
Wind_Direction
253 253 254 255 256 257 257 257 258 259 260 260 259 260 261 261 261 258 257 257 255 254 252 250 250 250 250 249 249 252 253 251 247 244 241 237 235 234 232 230 229 230
257 257 257 257 258 259 259 259 261 261 262 263 264 264 264 264 263 262 261 261 260 259 258 255 253 251 250 250 250 251 253 254 250 245 241 238 235 234 233 232 231 232
260 260 259 260 261 262 262 263 263 263 264 265 265 266 266 266 266 265 264 263 262 262 261 259 257 255 253 253 252 252 252 254 254 249 242 237 235 234 234 234 232 232
267 265 264 264 264 265 265 265 265 265 266 267 267 267 269 269 268 267 266 264 263 263 263 262 261 260 259 257 255 254 254 254 255 253 246 241 239 237 235 233 232 233
272 270 268 267 267 267 267 266 267 268 268 269 269 270 270 270 270 269 268 266 264 264 263 262 262 262 262 261 258 257 257 255 254 254 250 245 242 239 236 234 236 237
278 274 272 271 270 269 268 269 269 270 270 270 271 272 271 271 271 270 269 268 267 266 264 262 262 261 261 261 259 257 256 256 255 254 253 250 246 243 241 241 241 240
286 282 277 275 273 271 270 271 271 270 270 271 271 271 271 271 271 271 270 270 268 267 265 263 261 260 259 258 258 257 255 255 259 259 257 255 253 250 249 247 245 242
295 289 283 278 275 273 272 272 271 271 270 270 270 271 271 270 271 272 271 270 268 267 265 263 261 259 258 257 256 257 254 253 257 262 262 259 257 255 253 251 248 245
300 296 290 283 278 276 274 273 273 273 271 270 271 271 271 270 271 271 270 269 268 267 264 262 261 259 258 256 255 256 255 253 255 262 264 261 258 257 255 253 251 249
305 302 295 288 285 282 279 277 276 275 273 272 272 271 270 269 269 268 267 266 265 264 263 261 260 259 257 257 256 255 255 255 257 262 265 263 260 259 257 255 253 251
310 306 300 295 293 290 287 284 280 277 276 274 272 271 269 268 267 265 263 261 261 261 261 260 260 259 257 257 257 256 255 256 259 263 264 263 262 261 258 256 254 252
313 310 306 303 300 297 294 291 286 282 279 277 274 272 270 268 266 264 261 259 259 259 259 259 259 257 257 257 257 256 255 258 261 262 262 262 262 262 260 257 254 253
317 315 312 308 305 302 299 294 291 287 283 281 278 273 271 268 265 263 261 259 258 257 257 257 256 255 255 256 256 254 254 258 261 260 259 260 260 261 260 257 254 253
319 316 313 310 307 304 301 298 295 291 287 285 281 276 272 270 267 265 263 261 259 257 256 255 253 253 253 253 253 251 251 255 258 257 257 258 259 260 259 256 254 253
320 317 314 311 307 304 302 300 298 295 291 287 283 280 277 273 269 266 263 261 259 258 256 253 250 250 251 251 251 250 249 251 255 257 257 258 258 258 257 255 254 253
322 320 318 314 309 305 302 300 298 295 292 289 286 283 279 275 271 266 262 260 259 258 256 253 251 251 252 252 251 250 249 250 255 258 258 258 257 256 256 255 254 254
328 326 323 318 314 311 307 304 300 295 290 288 286 283 280 276 271 265 262 260 258 257 255 254 253 253 253 253 252 252 251 251 254 258 258 257 257 255 255 256 256 255
331 330 326 322 319 317 313 310 305 299 293 288 285 283 281 276 270 266 264 261 258 256 255 254 254 255 255 254 253 252 253 252 254 257 257 256 255 255 255 255 256 256
331 330 327 325 324 321 317 312 306 301 297 292 289 286 281 275 270 267 264 261 258 255 255 255 255 255 255 255 254 254 254 254 254 255 256 254 254 255 255 254 254 254
331 329 326 325 324 322 318 312 306 302 298 294 291 286 280 274 271 268 264 261 258 256 256 256 256 256 256 255 255 255 254 253 254 255 255 253 253 254 254 255 254 252
330 328 325 323 322 321 317 311 307 302 299 295 291 284 279 275 272 268 265 262 259 258 257 257 256 257 256 255 255 255 254 252 252 253 252 252 252 253 255 255 254 251
329 326 324 322 321 318 313 309 306 302 299 295 289 283 278 273 269 267 264 262 260 258 256 256 257 256 255 255 255 253 252 251 251 250 250 250 251 252 253 252 249 246
328 326 323 322 320 316 311 308 305 301 299 295 287 281 277 272 269 267 264 262 260 257 254 254 256 255 254 254 252 250 250 249 247 246 246 247 248 248 248 246 244 242
325 324 322 321 319 316 312 309 306 302 299 294 286 281 277 274 272 269 265 262 259 256 255 255 255 256 254 252 250 248 247 246 243 242 241 240 241 241 242 242 240 238
323 322 321 319 317 315 313 310 307 304 300 294 286 281 278 275 272 269 265 262 259 257 256 255 255 256 253 250 249 246 246 244 240 235 231 231 232 231 231 231 228 227
322 321 319 317 315 314 313 310 307 304 300 294 287 282 278 274 269 265 263 262 259 257 255 253 252 252 250 249 248 246 244 239 233 227 224 223 223 220 216 214 213 214
Height
797 798 798 798 798 798 799 800 801 801 801 802 802 802 803 804 805 807 807 807 808 808 808 809 810 811 811 812 813 814 813 812 811 811 811 811 811 811 811 811 812 813
795 795 796 796 795 796 797 798 798 798 798 798 799 799 800 802 803 804 804 805 805 805 806 806 806 807 807 808 809 809 809 808 807 806 806 805 806 807 807 807 808 809
793 793 793 793 793 793 795 795 795 795 795 796 796 797 798 799 800 801 801 802 802 802 803 803 804 804 804 804 805 805 804 804 803 802 802 801 802 802 801 802 803 804
790 791 790 790 791 791 792 793 792 792 793 793 793 795 796 796 797 797 798 798 798 799 800 800 801 801 801 802 801 801 800 799 799 800 799 798 798 798 798 799 800 800
788 788 788 788 789 789 790 789 789 790 790 790 791 792 793 793 794 794 794 795 795 795 796 797 797 797 798 799 799 797 796 795 796 797 797 795 795 795 796 797 797 796
785 785 785 786 786 787 787 786 786 787 787 787 788 789 790 790 790 791 791 792 792 792 793 793 793 793 794 795 795 794 793 792 793 794 793 792 792 793 793 794 793 793
783 784 784 784 784 783 783 782 782 783 783 784 785 785 786 786 787 787 788 788 788 788 788 788 789 789 790 791 791 790 790 790 790 790 790 789 790 790 790 790 790 789
782 782 782 782 782 781 780 779 779 779 780 781 781 781 782 783 783 784 784 784 785 784 784 784 785 785 786 787 786 786 786 786 786 786 786 786 786 786 786 787 787 786
780 780 779 779 779 778 777 776 775 776 777 777 776 777 778 778 779 780 780 780 780 780 780 780 781 781 782 782 782 782 782 782 783 783 782 782 782 782 782 783 783 783
777 777 777 776 775 774 773 773 773 773 773 773 773 773 773 773 774 775 775 776 776 775 776 776 776 777 778 778 778 778 778 778 779 779 778 778 777 778 779 779 779 779
775 775 774 773 772 771 770 770 770 770 770 770 769 769 769 770 770 770 770 770 770 770 771 771 772 773 774 774 774 774 775 775 775 775 774 773 773 774 775 775 775 775
774 773 772 771 770 769 768 768 767 767 766 766 766 766 765 766 766 765 765 765 765 766 766 766 767 769 769 769 770 770 771 771 771 770 770 769 769 770 770 771 771 770
774 773 771 770 768 767 766 765 765 764 763 763 763 763 762 762 761 761 761 761 761 761 761 762 762 763 764 764 764 765 766 766 766 766 766 765 765 765 766 766 766 766
773 772 770 769 768 766 764 763 762 761 760 760 760 759 758 758 758 758 758 758 758 757 757 757 757 757 758 758 758 759 760 761 761 761 761 761 760 761 761 761 762 762
771 770 768 767 766 764 763 761 760 759 758 757 756 755 754 754 755 755 755 754 754 754 754 753 753 752 752 753 753 754 755 756 756 757 757 756 756 756 757 757 757 758
769 767 766 764 763 761 760 759 758 756 755 754 752 751 751 751 751 751 751 751 750 750 751 750 749 748 748 749 750 751 752 752 752 753 753 753 752 752 753 753 753 754
766 764 763 761 759 758 756 755 754 753 752 750 749 748 747 747 747 747 746 747 747 747 747 746 746 746 747 748 748 749 750 749 749 749 749 750 749 749 749 750 750 751
763 761 759 758 756 755 753 752 750 749 747 746 745 744 744 744 743 742 742 743 743 743 742 742 742 743 745 745 745 746 747 747 747 747 746 746 747 747 747 748 748 749
761 759 756 755 754 753 751 749 748 746 744 743 742 741 741 740 739 739 739 739 739 739 738 738 739 740 742 742 743 744 745 745 744 744 744 743 744 744 745 746 746 747
761 758 755 753 752 750 749 747 745 744 742 741 740 739 738 737 736 736 735 735 735 735 735 735 736 737 738 739 740 741 742 742 741 741 741 741 741 742 742 743 744 745
760 757 755 752 750 748 746 744 743 741 740 739 738 736 735 734 733 733 732 732 732 732 732 732 732 734 735 736 737 738 739 739 738 738 738 739 739 740 740 741 742 743
759 756 753 751 749 747 744 742 741 739 737 737 736 733 732 731 730 730 729 729 729 729 729 728 728 730 732 733 734 735 736 736 736 736 736 736 737 737 738 739 740 741
758 755 752 749 747 746 743 741 739 737 735 734 733 731 730 728 727 726 726 726 725 725 725 724 725 727 728 729 731 732 732 733 733 733 734 734 735 735 736 737 738 739
756 754 751 748 745 743 741 739 737 735 733 732 730 728 727 726 725 724 723 723 723 722 722 722 722 724 726 726 727 728 729 730 730 731 731 731 732 733 733 734 735 736
754 752 750 747 744 741 739 737 735 733 732 730 728 726 724 723 723 722 721 721 721 720 721 721 721 722 723 724 725 726 726 727 727 728 728 728 729 730 731 731 733 734
752 750 748 746 743 740 737 735 733 732 730 728 726 724 722 721 720 719 718 718 719 719 719 719 719 720 721 722 722 723 723 724 724 725 725 726 727 728 729 730 731 733